Temp
22 22 21 21 21 21 21 20 20 20 20 21 21 21 20 20 20 20 20 20 20 20 20 20 21 21 21 21 21 21 20 21 21 22 22 22 22 22 22 22 22 21 22
23 22 22 21 21 21 21 21 20 20 20 20 21 21 20 20 20 20 20 20 20 20 20 20 20 21 21 21 21 20 20 21 21 21 21 22 22 22 21 21 22 22 22
22 22 22 21 21 21 21 21 21 20 20 21 21 21 20 20 20 20 20 21 20 20 20 20 20 20 20 20 21 20 20 20 20 20 20 21 21 21 22 21 22 22 21
22 22 22 22 22 21 21 21 21 21 21 21 21 21 21 20 20 20 20 21 21 21 20 20 20 19 20 20 20 20 20 20 20 20 21 21 21 22 21 21 22 22 22
21 22 22 22 22 22 21 21 22 21 21 21 21 20 20 20 20 20 20 21 21 21 21 20 20 20 20 19 19 20 20 20 20 20 20 21 21 22 22 22 21 21 22
21 22 22 22 22 22 22 21 21 22 21 21 21 21 20 20 20 20 21 21 21 21 21 21 21 21 20 20 20 20 20 20 20 20 20 21 22 22 22 21 20 20 20
19 20 20 21 21 22 21 21 21 21 21 21 21 21 21 21 21 21 21 21 21 21 21 21 22 21 21 21 21 21 20 20 20 20 20 20 21 22 21 20 20 20 20
20 20 19 19 20 21 21 21 21 21 20 20 21 21 21 21 21 21 21 21 21 21 22 22 22 22 22 21 21 21 21 21 21 20 20 20 20 21 20 20 19 20 20
20 21 19 19 20 20 21 21 21 21 20 20 20 21 20 21 21 21 21 21 21 22 22 22 21 21 22 21 21 21 21 22 22 22 21 21 21 21 20 19 20 19 19
20 20 20 19 19 21 21 22 21 21 21 21 20 20 20 20 21 21 21 21 21 21 22 22 22 22 22 22 21 21 21 22 22 22 21 21 21 20 20 20 19 18 18
21 22 20 20 21 20 21 22 22 22 21 21 20 21 20 21 21 21 21 20 21 21 22 22 22 23 22 22 22 21 22 22 22 21 21 21 21 21 21 20 19 19 19
19 20 19 21 22 20 21 21 22 22 22 21 21 20 20 20 21 21 21 21 21 21 22 23 23 23 23 22 22 22 22 22 21 21 21 22 22 22 21 20 19 20 20
19 19 21 22 22 21 21 21 22 22 22 21 21 20 21 21 21 22 22 22 22 21 22 23 23 23 22 22 22 22 22 21 21 21 21 22 22 22 20 20 20 19 20
16 18 22 22 22 22 19 21 22 22 22 21 20 21 21 21 21 22 22 22 23 22 22 22 22 22 21 21 21 21 21 21 21 21 22 22 22 21 21 20 19 20 19
16 19 21 21 22 22 22 22 22 23 23 23 22 22 22 21 22 22 22 22 23 23 23 21 20 21 21 21 20 21 21 20 21 21 21 22 21 21 20 20 19 19 19
14 15 18 20 22 23 22 22 23 22 21 22 22 22 22 22 22 21 21 22 22 21 21 20 21 21 21 21 21 21 21 21 21 21 21 20 20 20 19 20 20 19 19
12 14 16 18 19 21 21 22 22 22 21 21 21 22 21 21 20 20 20 20 21 21 20 20 21 21 22 22 21 21 20 21 21 21 20 20 20 20 19 19 19 19 19
13 14 14 17 18 19 21 20 22 22 22 21 21 21 21 20 20 20 20 20 20 21 21 21 21 22 22 22 21 21 21 20 20 20 21 20 19 19 19 19 19 19 19
12 13 14 16 17 18 20 21 21 21 21 21 21 21 21 20 20 20 20 20 21 21 21 22 23 23 22 22 20 20 20 20 19 19 19 20 19 18 18 18 19 19 19
11 12 13 15 16 18 19 21 21 21 21 21 21 21 21 20 20 20 20 21 21 21 22 22 23 22 21 21 21 20 20 20 20 21 21 21 21 19 18 16 18 18 18
10 12 12 14 15 17 18 19 20 21 21 21 21 20 21 20 21 20 20 20 20 21 21 22 21 20 20 20 20 21 21 21 21 21 21 21 20 22 19 18 17 17 17
10 11 11 12 14 15 16 16 17 19 20 21 21 20 19 19 19 18 18 19 19 19 20 20 20 19 19 19 20 20 20 20 18 18 20 20 19 18 16 17 17 17 17
9 10 10 11 13 14 15 16 16 17 17 18 18 18 17 17 18 17 18 18 18 18 18 19 19 19 19 19 19 18 17 18 18 19 18 17 16 16 16 16 16 16 16
8 10 10 10 10 11 12 14 14 14 14 16 16 15 15 15 15 16 16 16 16 16 16 16 16 16 16 17 17 17 17 16 16 16 16 16 16 16 16 16 16 15 15
7 8 8 9 9 10 10 10 10 10 13 12 13 14 15 14 14 14 14 14 14 16 15 14 14 13 13 13 14 15 14 15 14 14 15 15 15 15 15 15 15 14 13
6 5 7 7 8 9 10 8 9 8 8 9 8 10 11 12 10 11 9 10 11 10 10 12 11 11 10 11 11 11 11 12 12 12 12 13 14 14 13 13 13 12 13
Height
1538 1546 1552 1558 1563 1567 1571 1574 1576 1579 1581 1583 1584 1585 1587 1589 1590 1591 1592 1593 1593 1595 1597 1598 1599 1601 1603 1604 1605 1605 1605 1605 1605 1605 1604 1604 1603 1602 1601 1599 1596 1594 1591
1532 1540 1545 1551 1558 1562 1566 1570 1574 1576 1578 1581 1582 1583 1584 1586 1587 1588 1590 1590 1591 1592 1594 1595 1596 1598 1599 1601 1602 1603 1603 1604 1603 1602 1601 1600 1600 1599 1598 1595 1593 1591 1587
1525 1532 1538 1544 1550 1555 1560 1565 1569 1572 1575 1577 1579 1579 1580 1582 1584 1585 1587 1588 1589 1590 1592 1593 1594 1595 1596 1598 1599 1600 1601 1601 1601 1599 1598 1597 1596 1595 1593 1591 1590 1588 1585
1517 1526 1531 1536 1542 1547 1553 1559 1562 1566 1569 1571 1573 1575 1576 1578 1580 1582 1583 1584 1586 1587 1588 1589 1591 1591 1593 1595 1596 1597 1597 1597 1597 1596 1594 1594 1592 1591 1590 1588 1584 1583 1580
1509 1516 1523 1530 1534 1541 1545 1550 1555 1559 1561 1565 1568 1570 1571 1573 1575 1577 1580 1581 1582 1583 1584 1585 1586 1587 1589 1590 1591 1592 1593 1593 1592 1592 1590 1589 1588 1587 1586 1584 1580 1576 1574
1503 1508 1515 1521 1526 1530 1536 1541 1546 1550 1553 1557 1560 1563 1565 1567 1569 1573 1576 1577 1578 1579 1580 1581 1581 1583 1584 1585 1586 1587 1588 1587 1587 1586 1585 1585 1583 1582 1582 1580 1577 1572 1567
1500 1505 1509 1514 1518 1523 1528 1533 1536 1539 1545 1547 1551 1555 1557 1560 1563 1567 1571 1572 1573 1574 1575 1576 1577 1578 1579 1580 1581 1581 1581 1582 1582 1582 1581 1580 1579 1578 1577 1574 1572 1568 1565
1499 1501 1503 1507 1511 1516 1522 1523 1527 1530 1535 1538 1542 1545 1549 1552 1555 1560 1564 1566 1566 1567 1569 1570 1571 1572 1573 1575 1576 1575 1575 1575 1576 1578 1577 1575 1575 1574 1573 1570 1567 1562 1560
1490 1494 1502 1506 1506 1507 1512 1517 1520 1522 1525 1530 1533 1536 1540 1543 1547 1552 1556 1558 1559 1559 1562 1564 1565 1566 1567 1569 1570 1570 1570 1569 1571 1571 1571 1570 1570 1569 1568 1565 1562 1559 1554
1483 1485 1492 1498 1504 1504 1504 1508 1512 1514 1516 1522 1525 1527 1531 1534 1538 1542 1547 1550 1550 1552 1554 1555 1557 1559 1560 1562 1563 1563 1562 1561 1563 1563 1563 1563 1562 1561 1561 1559 1558 1554 1552
1474 1476 1484 1491 1493 1494 1497 1503 1506 1506 1509 1512 1517 1520 1522 1525 1528 1532 1537 1540 1541 1543 1544 1545 1548 1550 1552 1554 1555 1555 1554 1555 1555 1555 1554 1554 1554 1554 1554 1553 1551 1549 1547
1470 1478 1484 1484 1485 1486 1488 1492 1498 1499 1501 1504 1508 1510 1512 1515 1518 1522 1526 1529 1532 1533 1534 1537 1539 1542 1543 1545 1547 1546 1547 1548 1547 1546 1546 1546 1546 1547 1547 1546 1545 1543 1543
1473 1477 1478 1477 1478 1475 1478 1482 1486 1489 1492 1495 1499 1501 1502 1506 1509 1512 1515 1519 1522 1524 1525 1527 1531 1533 1534 1535 1537 1538 1540 1539 1539 1538 1538 1538 1539 1540 1540 1539 1539 1538 1538
1469 1466 1468 1468 1467 1467 1470 1473 1477 1479 1482 1487 1489 1491 1494 1497 1499 1502 1505 1508 1512 1514 1517 1519 1521 1523 1524 1526 1527 1529 1530 1530 1530 1530 1531 1532 1532 1532 1532 1532 1532 1532 1532
1455 1451 1452 1455 1459 1462 1461 1462 1466 1468 1472 1476 1479 1484 1485 1487 1488 1494 1496 1499 1502 1504 1509 1511 1511 1513 1515 1516 1517 1518 1519 1521 1521 1523 1524 1525 1526 1526 1526 1527 1527 1526 1525
1447 1449 1450 1448 1445 1449 1453 1452 1457 1460 1467 1470 1472 1475 1477 1479 1483 1485 1488 1491 1494 1498 1501 1501 1502 1504 1506 1507 1508 1508 1511 1512 1514 1515 1516 1519 1521 1521 1520 1522 1523 1522 1520
1452 1450 1446 1443 1443 1444 1446 1447 1450 1454 1460 1462 1465 1468 1469 1472 1476 1477 1480 1484 1487 1490 1490 1492 1494 1496 1498 1499 1500 1501 1501 1503 1507 1508 1510 1512 1515 1517 1518 1518 1518 1519 1518
1446 1443 1440 1438 1440 1440 1440 1442 1444 1447 1449 1453 1457 1460 1462 1464 1467 1471 1474 1477 1477 1478 1480 1483 1485 1487 1490 1492 1495 1496 1497 1499 1501 1502 1504 1507 1510 1513 1513 1513 1511 1511 1513
1442 1437 1436 1433 1434 1433 1435 1437 1439 1442 1442 1446 1450 1451 1453 1455 1458 1462 1464 1466 1467 1469 1472 1474 1476 1479 1482 1484 1488 1490 1492 1493 1498 1500 1499 1499 1500 1505 1509 1511 1509 1507 1505
1437 1432 1431 1429 1429 1428 1429 1430 1433 1434 1435 1437 1440 1441 1444 1447 1448 1451 1454 1458 1458 1459 1462 1465 1468 1471 1475 1476 1479 1482 1485 1486 1489 1490 1490 1488 1490 1492 1488 1501 1505 1507 1501
1432 1430 1426 1425 1425 1423 1422 1423 1425 1427 1427 1429 1431 1434 1436 1438 1440 1444 1448 1451 1451 1452 1454 1457 1460 1464 1467 1470 1472 1475 1478 1478 1474 1474 1480 1483 1482 1477 1485 1500 1499 1500 1494
1430 1427 1423 1419 1418 1417 1417 1418 1418 1418 1418 1419 1421 1425 1430 1431 1435 1437 1437 1441 1445 1447 1448 1449 1454 1458 1461 1464 1465 1466 1468 1468 1468 1464 1466 1471 1480 1473 1484 1489 1488 1487 1488
1427 1423 1420 1419 1416 1414 1413 1412 1411 1411 1411 1410 1413 1417 1423 1425 1426 1429 1429 1433 1439 1445 1445 1445 1451 1454 1456 1457 1458 1459 1461 1460 1459 1457 1458 1462 1470 1467 1480 1478 1481 1482 1483
1420 1416 1419 1417 1414 1410 1408 1405 1406 1406 1403 1402 1405 1410 1415 1419 1422 1424 1426 1422 1426 1439 1437 1437 1445 1450 1453 1452 1453 1454 1455 1455 1457 1456 1458 1462 1465 1468 1470 1471 1474 1478 1480
1418 1419 1420 1419 1418 1409 1407 1408 1404 1403 1405 1408 1401 1407 1410 1418 1420 1424 1424 1423 1425 1431 1436 1433 1437 1441 1447 1449 1447 1449 1454 1453 1455 1458 1456 1455 1458 1462 1465 1467 1468 1468 1470
1421 1421 1419 1418 1416 1414 1410 1413 1409 1410 1407 1409 1405 1406 1406 1415 1422 1424 1423 1424 1428 1434 1430 1432 1436 1437 1443 1441 1445 1449 1450 1450 1453 1453 1453 1452 1450 1454 1457 1459 1460 1460 1461
Wind_Speed
43 41 40 43 42 42 40 35 29 28 26 25 20 21 24 20 14 15 16 14 17 16 15 15 17 20 20 17 13 13 10 14 15 16 14 14 15 16 18 19 18 18 20
44 44 42 42 44 43 44 42 36 33 30 29 27 21 25 24 18 15 16 17 16 17 15 14 14 16 18 23 19 15 15 13 16 19 17 15 17 18 17 17 14 17 19
48 47 45 42 45 48 46 46 43 38 34 34 33 29 23 26 22 17 16 17 17 18 17 16 14 18 17 15 22 20 18 17 18 21 23 22 24 22 21 17 18 17 21
46 49 48 45 43 46 48 47 46 45 41 37 34 33 30 28 25 21 19 17 18 20 21 20 18 16 17 17 17 18 20 22 21 23 26 27 26 22 21 21 23 28 29
45 47 52 48 44 42 44 49 49 48 47 44 41 38 33 31 31 30 27 24 22 21 23 25 24 21 20 20 20 20 20 22 22 23 24 25 25 24 23 26 31 29 28
42 47 50 49 47 46 43 43 47 51 51 49 48 44 43 39 35 32 30 27 24 24 24 24 24 24 24 23 23 22 21 21 23 24 25 25 26 24 23 24 26 30 36
33 41 44 47 46 45 46 43 44 46 48 53 52 49 47 45 43 40 35 31 29 27 27 25 25 24 23 23 23 22 23 23 23 24 26 25 26 24 25 27 30 33 34
30 27 39 46 46 42 43 43 41 41 43 46 50 53 50 48 45 43 39 36 32 30 28 26 24 22 22 22 21 23 24 24 23 23 27 28 29 28 28 30 34 35 31
23 24 23 39 43 46 44 44 41 37 39 42 45 46 50 49 44 41 39 39 36 34 31 29 27 26 23 21 23 25 25 25 24 25 28 29 29 30 31 33 29 27 29
25 27 23 18 38 49 48 46 43 39 35 37 41 43 45 45 44 41 40 39 38 37 35 33 31 30 28 27 27 28 31 29 27 28 29 30 30 29 25 23 23 26 25
32 33 28 32 36 47 54 52 48 42 39 38 39 38 39 40 40 38 36 36 38 38 38 37 34 32 30 30 30 33 33 29 31 32 27 23 22 22 20 19 21 21 19
12 36 35 36 39 38 46 51 49 46 43 42 42 41 39 38 36 36 35 35 34 37 39 37 35 33 31 32 32 33 32 30 30 28 27 25 25 22 20 20 19 17 17
31 29 28 35 29 36 43 49 52 49 47 47 46 44 42 40 38 35 33 33 33 36 36 35 33 32 33 33 32 30 27 28 28 30 31 29 25 20 21 22 17 16 16
18 22 25 26 30 35 46 45 49 51 50 51 48 47 42 41 39 37 36 34 32 33 34 34 34 33 33 33 32 30 29 29 29 28 29 28 24 23 23 16 15 16 16
21 18 23 22 33 31 39 42 45 47 49 51 48 45 42 41 40 36 35 35 34 33 32 34 37 36 36 36 36 36 36 37 38 36 33 28 24 23 19 17 16 17 19
24 19 19 21 24 34 30 39 43 45 49 48 45 43 39 37 33 31 31 30 29 26 28 32 34 35 34 34 36 37 38 37 36 35 36 31 25 20 17 16 18 22 18
17 19 18 16 19 26 31 39 41 45 45 43 42 38 38 36 31 29 28 27 25 23 31 32 31 30 30 29 28 28 29 28 26 27 25 21 19 18 17 16 20 20 19
17 18 20 20 18 21 29 37 41 42 43 41 39 35 34 34 33 28 26 30 32 31 32 33 32 30 27 28 24 18 12 11 12 13 14 16 18 19 22 22 22 20 18
16 17 19 19 21 21 26 30 31 33 34 37 37 39 38 34 39 33 33 33 32 33 33 32 32 31 28 22 21 16 13 8 6 8 12 17 19 16 22 28 22 19 17
14 13 20 20 21 24 24 28 28 31 32 34 34 32 37 39 35 38 34 27 22 23 26 28 29 31 28 25 23 19 18 14 11 17 22 20 26 32 44 50 24 18 17
13 11 12 14 20 16 19 24 29 32 34 33 34 34 34 39 36 35 31 31 30 29 25 24 26 26 28 30 24 24 25 28 24 15 20 32 34 38 30 28 21 19 16
12 12 10 9 11 20 25 23 25 27 33 35 33 33 32 37 33 31 30 27 26 27 25 27 29 29 27 26 27 32 33 35 31 21 21 23 24 16 23 24 20 18 19
7 12 9 8 11 15 19 17 17 17 24 29 26 29 33 31 31 32 30 24 22 23 23 23 25 26 28 28 29 29 27 24 19 21 24 21 18 19 22 19 20 20 20
3 5 3 6 1 8 10 17 17 16 24 29 34 35 32 29 29 31 30 28 26 23 21 19 19 20 23 26 28 26 23 18 17 20 22 21 20 21 19 20 21 21 20
1 5 6 5 10 10 9 2 12 22 22 20 31 29 28 26 25 25 25 26 25 24 23 24 23 18 16 14 17 19 22 23 18 20 19 18 14 14 15 18 19 18 16
7 5 7 8 8 11 15 16 17 19 21 22 25 26 26 21 19 18 15 16 18 15 15 15 14 14 10 9 8 10 9 8 9 8 8 9 9 9 9 11 13 14 16
Wind_Direction
230 231 231 228 221 216 216 216 219 218 220 221 224 232 225 223 229 222 217 213 212 211 218 225 228 231 230 229 239 247 263 257 272 268 277 279 283 290 287 292 301 305 310
231 233 233 232 228 222 218 218 219 222 224 227 232 232 224 224 230 232 223 218 214 209 209 221 223 218 226 230 234 243 251 258 268 275 279 279 285 294 302 304 299 301 311
229 233 235 234 232 229 224 221 222 223 225 231 235 233 222 225 228 233 238 231 231 230 231 234 236 232 230 234 232 245 252 255 263 273 281 287 292 297 304 294 299 304 305
230 233 234 236 234 233 232 228 224 225 226 229 233 236 233 235 239 239 241 245 244 242 242 242 239 241 243 244 247 254 258 261 266 271 276 282 287 296 297 302 302 308 312
230 237 237 237 239 237 236 235 232 228 229 232 232 234 234 234 240 244 248 252 253 248 245 245 246 247 247 249 257 261 263 265 268 272 277 282 286 293 299 306 307 310 315
233 238 240 238 238 240 238 238 237 234 233 232 234 235 235 238 241 245 250 252 254 255 250 247 248 250 251 254 255 258 262 266 270 271 277 282 288 296 304 305 305 311 315
223 235 240 242 239 241 242 240 239 238 236 236 237 237 237 238 242 246 247 251 254 255 256 255 251 249 251 253 255 258 259 260 263 273 276 278 288 295 299 300 306 307 309
221 232 239 238 242 243 241 241 240 240 238 236 238 239 240 242 244 246 248 251 253 254 255 257 255 253 253 256 261 262 263 262 258 262 272 279 284 291 293 297 301 302 307
236 237 229 242 244 244 242 240 240 241 241 237 237 240 241 243 244 244 245 248 251 251 252 252 254 257 259 260 263 265 267 268 267 268 272 278 282 287 292 294 295 301 305
222 219 213 247 251 244 249 245 242 243 244 242 240 239 242 245 247 249 248 246 248 250 252 254 255 258 262 263 263 267 271 273 278 280 279 279 281 282 284 284 296 296 298
223 224 254 276 259 249 246 249 246 243 243 245 244 243 243 243 244 244 245 245 246 249 251 254 257 259 262 265 265 266 270 281 283 283 279 273 270 274 283 292 298 288 284
237 229 265 264 257 245 246 247 245 243 244 243 245 246 247 248 248 248 247 245 245 248 251 253 257 262 264 265 266 267 272 275 273 270 267 268 273 282 295 296 280 266 271
254 244 265 256 260 243 245 242 243 241 242 244 242 243 248 251 251 250 248 245 244 247 250 254 258 262 264 265 263 262 263 256 255 261 265 269 278 294 287 283 256 272 273
277 251 263 258 255 252 235 242 243 243 241 238 240 243 246 248 252 252 250 246 243 243 247 252 257 260 264 265 264 260 256 253 256 260 266 274 278 274 277 257 255 265 272
298 283 272 269 249 252 241 240 244 248 248 245 245 247 248 249 252 256 256 252 248 247 249 251 253 255 256 258 259 259 258 257 258 263 267 270 270 271 254 255 263 263 271
301 296 280 273 252 246 250 245 243 247 247 246 250 253 257 261 262 263 260 262 260 259 254 252 252 254 255 258 260 260 260 261 262 263 264 265 271 256 252 260 264 270 267
297 290 282 279 260 244 241 243 242 242 242 245 244 252 255 259 260 259 259 258 256 254 250 250 252 252 253 258 263 266 265 260 261 262 260 257 250 257 256 265 272 270 264
290 292 282 269 267 238 237 242 245 242 239 241 243 245 253 249 252 252 249 249 246 244 245 247 248 248 255 260 260 254 252 256 255 251 254 254 260 263 262 258 261 262 265
293 281 283 271 267 256 235 236 241 244 245 246 247 247 245 252 242 240 243 247 241 240 245 248 249 245 250 246 230 237 247 259 247 264 264 275 258 270 289 276 273 264 256
287 286 274 275 268 258 251 243 242 249 251 250 247 247 242 240 237 238 233 235 230 235 239 244 249 241 226 228 229 234 235 222 236 275 283 279 265 262 270 277 261 260 258
288 277 283 251 247 246 250 251 247 245 251 254 252 248 243 236 235 230 225 231 237 241 229 228 229 225 220 220 226 230 236 247 263 266 279 280 269 255 252 252 245 255 269
268 281 300 270 244 248 245 245 249 250 247 243 246 242 237 229 224 210 210 210 219 218 215 215 214 216 220 224 231 234 234 258 261 250 265 269 265 230 227 237 250 264 268
265 273 309 291 238 219 204 199 199 215 205 221 210 218 201 201 200 205 201 206 217 219 215 219 230 232 232 229 234 246 257 255 252 245 244 230 213 225 231 241 252 260 268
256 260 275 26 146 200 193 187 175 170 158 182 191 184 189 195 196 195 198 198 209 211 205 204 209 225 226 232 244 249 235 232 227 213 215 215 217 230 243 253 257 263 266
198 202 184 122 71 83 97 155 162 149 155 145 155 163 165 166 164 164 160 158 159 183 181 174 176 173 187 192 201 216 218 216 216 221 217 221 229 249 255 261 267 266 264
77 118 142 138 128 108 93 96 103 106 105 123 121 137 137 143 130 139 124 136 147 145 140 155 163 164 156 160 190 205 208 207 217 210 219 223 225 241 258 271 274 275 277